sat.trackr.live / text

‹ back to catalog

WGS F7 (USA 263)

NORAD 40746 · 2015-036A

PAYLOAD ACTIVE UNKNOWN

§ Identity

Operator
Country
US
Launch date
2015-07-24
Launch site
AFETR
Launch vehicle
Mass (kg)
RCS (m²)
7.25

Purposes: comms

External: N2YO · Heavens-Above · Gunter

§ Orbital elements

Epoch: 2026-09-15T21:25:35.554368Z

Period
1,436.06 min
Inclination
0.0131°
Eccentricity
0.0000369
Mean motion
1.00274354 rev/d
Perigee alt
35,784.3 km
Apogee alt
35,787.4 km
Semi-major
42,164.0 km
B*
0.0000e+0
RAAN
160.7887°
Arg perigee
299.1739°
Mean anomaly
31.2815°
Rev number
4,078

§ Raw data

WGS F7 (USA 263)1 40746U 15036A   26258.89277262  .00000013  00000+0  00000+0 0  99942 40746   0.0131 160.7887 0000369 299.1739  31.2815  1.00274354 40788

JSON: /api/v1/satellites/40746 · /tle

For live sub-satellite position, see the globe view (requires WebGL).

§ Visibility from observer

Set your observer location to see the next 7 days of passes ≥ 10°. The values pass through the URL so the page stays shareable.

No JS? Fill the form by hand. The geolocation button needs JavaScript.